Time,TemperatureF,DewpointF,PressureIn,WindDirection,WindDirectionDegrees,WindSpeedMPH,WindSpeedGustMPH,Humidity,HourlyPrecipIn,Conditions,Clouds,dailyrainin,SolarRadiationWatts/m^2,SoftwareType,DateUTC
2013-04-22 00:05:00,40.9,11.0,29.90,North,360,4.0,9.0,29,0.00,,,0.00,0,weatherlink.com 1.10,2013-04-22 06:05:00,
2013-04-22 00:20:00,40.6,10.0,29.90,North,360,4.0,9.0,29,0.00,,,0.00,0,weatherlink.com 1.10,2013-04-22 06:20:00,
2013-04-22 00:35:00,40.3,10.0,29.89,North,360,1.0,4.0,29,0.00,,,0.00,0,weatherlink.com 1.10,2013-04-22 06:35:00,
2013-04-22 00:50:00,39.6,11.0,29.87,North,360,1.0,3.0,31,0.00,,,0.00,0,weatherlink.com 1.10,2013-04-22 06:50:00,
2013-04-22 01:05:00,39.4,11.0,29.87,North,360,0.0,2.0,31,0.00,,,0.00,0,weatherlink.com 1.10,2013-04-22 07:05:00,
2013-04-22 01:20:00,37.7,12.0,29.86,North,360,0.0,1.0,34,0.00,,,0.00,0,weatherlink.com 1.10,2013-04-22 07:20:00,
2013-04-22 01:35:00,38.5,12.0,29.85,North,360,2.0,3.0,33,0.00,,,0.00,0,weatherlink.com 1.10,2013-04-22 07:35:00,
2013-04-22 01:50:00,39.6,12.0,29.85,North,360,2.0,4.0,32,0.00,,,0.00,0,weatherlink.com 1.10,2013-04-22 07:50:00,
2013-04-22 02:05:00,39.7,11.0,29.84,North,360,0.0,6.0,31,0.00,,,0.00,0,weatherlink.com 1.10,2013-04-22 08:05:00,
2013-04-22 02:20:00,39.7,11.0,29.83,North,360,2.0,5.0,31,0.00,,,0.00,0,weatherlink.com 1.10,2013-04-22 08:20:00,
2013-04-22 02:35:00,39.3,12.0,29.83,North,360,0.0,4.0,32,0.00,,,0.00,0,weatherlink.com 1.10,2013-04-22 08:35:00,
2013-04-22 02:50:00,38.7,12.0,29.82,North,360,0.0,4.0,33,0.00,,,0.00,0,weatherlink.com 1.10,2013-04-22 08:50:00,
2013-04-22 03:05:00,37.7,12.0,29.82,North,360,0.0,4.0,34,0.00,,,0.00,0,weatherlink.com 1.10,2013-04-22 09:05:00,
2013-04-22 03:20:00,35.9,12.0,29.81,North,360,0.0,2.0,38,0.00,,,0.00,0,weatherlink.com 1.10,2013-04-22 09:20:00,
2013-04-22 03:35:00,36.0,12.0,29.81,North,360,0.0,1.0,38,0.00,,,0.00,0,weatherlink.com 1.10,2013-04-22 09:35:00,
2013-04-22 03:50:00,36.8,13.0,29.80,North,360,2.0,3.0,37,0.00,,,0.00,0,weatherlink.com 1.10,2013-04-22 09:50:00,
2013-04-22 04:05:00,37.5,13.0,29.80,North,360,1.0,2.0,36,0.00,,,0.00,0,weatherlink.com 1.10,2013-04-22 10:05:00,
2013-04-22 04:20:00,37.2,14.0,29.79,North,360,2.0,2.0,38,0.00,,,0.00,0,weatherlink.com 1.10,2013-04-22 10:20:00,
2013-04-22 04:35:00,37.7,13.0,29.79,North,360,1.0,2.0,37,0.00,,,0.00,0,weatherlink.com 1.10,2013-04-22 10:35:00,
2013-04-22 04:50:00,37.9,14.0,29.79,North,360,1.0,3.0,38,0.00,,,0.00,0,weatherlink.com 1.10,2013-04-22 10:50:00,
2013-04-22 05:05:00,38.9,14.0,29.79,North,360,2.0,5.0,37,0.00,,,0.00,0,weatherlink.com 1.10,2013-04-22 11:05:00,
2013-04-22 05:20:00,39.3,15.0,29.78,North,360,0.0,4.0,37,0.00,,,0.00,0,weatherlink.com 1.10,2013-04-22 11:20:00,
2013-04-22 05:35:00,38.9,15.0,29.78,North,360,1.0,5.0,38,0.00,,,0.00,0,weatherlink.com 1.10,2013-04-22 11:35:00,
2013-04-22 05:50:00,38.8,15.0,29.78,North,360,1.0,2.0,38,0.00,,,0.00,0,weatherlink.com 1.10,2013-04-22 11:50:00,
2013-04-22 06:05:00,39.3,15.0,29.78,North,360,3.0,4.0,37,0.00,,,0.00,0,weatherlink.com 1.10,2013-04-22 12:05:00,
2013-04-22 06:20:00,39.4,15.0,29.78,North,360,3.0,5.0,37,0.00,,,0.00,0,weatherlink.com 1.10,2013-04-22 12:20:00,
2013-04-22 06:35:00,39.3,15.0,29.78,North,360,1.0,5.0,38,0.00,,,0.00,9,weatherlink.com 1.10,2013-04-22 12:35:00,
2013-04-22 06:50:00,39.7,15.0,29.78,North,360,2.0,5.0,37,0.00,,,0.00,12,weatherlink.com 1.10,2013-04-22 12:50:00,
2013-04-22 07:05:00,39.4,16.0,29.79,North,360,1.0,5.0,38,0.00,,,0.00,16,weatherlink.com 1.10,2013-04-22 13:05:00,
2013-04-22 07:20:00,39.5,16.0,29.78,North,360,3.0,4.0,38,0.00,,,0.00,25,weatherlink.com 1.10,2013-04-22 13:20:00,
2013-04-22 07:36:00,40.0,16.0,29.77,North,360,6.0,6.0,38,0.00,,,0.00,30,weatherlink.com 1.10,2013-04-22 13:36:00,
2013-04-22 07:51:00,40.8,16.0,29.77,North,360,2.0,6.0,37,0.00,,,0.00,33,weatherlink.com 1.10,2013-04-22 13:51:00,
2013-04-22 08:06:00,41.8,16.0,29.77,North,360,5.0,8.0,35,0.00,,,0.00,37,weatherlink.com 1.10,2013-04-22 14:06:00,
2013-04-22 08:21:00,42.7,17.0,29.77,North,360,3.0,6.0,35,0.00,,,0.00,47,weatherlink.com 1.10,2013-04-22 14:21:00,
2013-04-22 08:36:00,43.8,16.0,29.77,North,360,2.0,6.0,33,0.00,,,0.00,397,weatherlink.com 1.10,2013-04-22 14:36:00,
2013-04-22 08:51:00,44.3,17.0,29.77,North,360,3.0,8.0,33,0.00,,,0.00,450,weatherlink.com 1.10,2013-04-22 14:51:00,
2013-04-22 09:06:00,45.4,17.0,29.77,WSW,246,1.0,13.0,32,0.00,,,0.00,471,weatherlink.com 1.10,2013-04-22 15:06:00,
2013-04-22 09:21:00,46.2,17.0,29.76,North,360,2.0,6.0,31,0.00,,,0.00,545,weatherlink.com 1.10,2013-04-22 15:21:00,
2013-04-22 09:36:00,47.2,17.0,29.76,North,360,2.0,12.0,30,0.00,,,0.00,605,weatherlink.com 1.10,2013-04-22 15:36:00,
2013-04-22 09:51:00,48.3,17.0,29.75,North,360,6.0,8.0,29,0.00,,,0.00,652,weatherlink.com 1.10,2013-04-22 15:51:00,
2013-04-22 10:06:00,48.1,16.0,29.75,North,360,4.0,9.0,28,0.00,,,0.00,701,weatherlink.com 1.10,2013-04-22 16:06:00,
2013-04-22 10:21:00,49.4,17.0,29.75,North,360,6.0,8.0,28,0.00,,,0.00,742,weatherlink.com 1.10,2013-04-22 16:21:00,
2013-04-22 10:36:00,49.4,17.0,29.76,North,360,4.0,10.0,27,0.00,,,0.00,784,weatherlink.com 1.10,2013-04-22 16:36:00,
2013-04-22 10:51:00,50.6,17.0,29.75,North,360,6.0,10.0,26,0.00,,,0.00,821,weatherlink.com 1.10,2013-04-22 16:51:00,
2013-04-22 11:06:00,51.2,17.0,29.76,North,360,3.0,12.0,26,0.00,,,0.00,853,weatherlink.com 1.10,2013-04-22 17:06:00,
2013-04-22 11:21:00,52.6,17.0,29.75,North,360,8.0,9.0,24,0.00,,,0.00,884,weatherlink.com 1.10,2013-04-22 17:21:00,
2013-04-22 11:37:00,54.1,18.0,29.74,North,360,5.0,8.0,24,0.00,,,0.00,912,weatherlink.com 1.10,2013-04-22 17:37:00,
2013-04-22 11:52:00,55.4,18.0,29.74,North,360,3.0,9.0,23,0.00,,,0.00,935,weatherlink.com 1.10,2013-04-22 17:52:00,
2013-04-22 12:07:00,56.1,18.0,29.71,North,360,3.0,10.0,22,0.00,,,0.00,967,weatherlink.com 1.10,2013-04-22 18:07:00,
2013-04-22 12:22:00,56.5,17.0,29.71,North,360,7.0,13.0,21,0.00,,,0.00,983,weatherlink.com 1.10,2013-04-22 18:22:00,
2013-04-22 12:37:00,59.0,19.0,29.69,North,360,5.0,13.0,21,0.00,,,0.00,1007,weatherlink.com 1.10,2013-04-22 18:37:00,
2013-04-22 12:52:00,60.2,19.0,29.69,North,360,9.0,11.0,20,0.00,,,0.00,993,weatherlink.com 1.10,2013-04-22 18:52:00,
2013-04-22 13:07:00,60.5,19.0,29.69,North,360,3.0,10.0,20,0.00,,,0.00,998,weatherlink.com 1.10,2013-04-22 19:07:00,
2013-04-22 13:22:00,59.6,17.0,29.68,North,360,6.0,13.0,19,0.00,,,0.00,1021,weatherlink.com 1.10,2013-04-22 19:22:00,
2013-04-22 13:37:00,60.5,18.0,29.67,North,360,2.0,10.0,19,0.00,,,0.00,1039,weatherlink.com 1.10,2013-04-22 19:37:00,
2013-04-22 13:52:00,59.7,16.0,29.67,North,360,7.0,15.0,18,0.00,,,0.00,1020,weatherlink.com 1.10,2013-04-22 19:52:00,
2013-04-22 14:07:00,60.4,15.0,29.67,North,360,6.0,11.0,17,0.00,,,0.00,865,weatherlink.com 1.10,2013-04-22 20:07:00,
2013-04-22 14:22:00,60.2,15.0,29.67,North,360,5.0,14.0,17,0.00,,,0.00,789,weatherlink.com 1.10,2013-04-22 20:22:00,
2013-04-22 14:37:00,58.5,15.0,29.66,North,360,5.0,16.0,18,0.00,,,0.00,213,weatherlink.com 1.10,2013-04-22 20:37:00,
2013-04-22 14:52:00,59.7,15.0,29.66,North,360,4.0,13.0,17,0.00,,,0.00,819,weatherlink.com 1.10,2013-04-22 20:52:00,
2013-04-22 15:07:00,61.1,16.0,29.65,WNW,285,6.0,12.0,17,0.00,,,0.00,803,weatherlink.com 1.10,2013-04-22 21:07:00,
2013-04-22 15:22:00,59.3,16.0,29.65,WSW,257,7.0,12.0,18,0.00,,,0.00,664,weatherlink.com 1.10,2013-04-22 21:22:00,
2013-04-22 15:37:00,58.0,16.0,29.64,North,360,4.0,11.0,19,0.00,,,0.00,329,weatherlink.com 1.10,2013-04-22 21:37:00,
2013-04-22 15:52:00,58.1,16.0,29.63,North,360,10.0,16.0,19,0.00,,,0.00,626,weatherlink.com 1.10,2013-04-22 21:52:00,
2013-04-22 16:07:00,57.4,14.0,29.63,North,360,6.0,11.0,18,0.00,,,0.00,181,weatherlink.com 1.10,2013-04-22 22:07:00,
2013-04-22 16:22:00,56.9,15.0,29.63,North,360,5.0,9.0,19,0.00,,,0.00,185,weatherlink.com 1.10,2013-04-22 22:22:00,
2013-04-22 16:37:00,56.2,14.0,29.63,North,360,4.0,12.0,19,0.00,,,0.00,185,weatherlink.com 1.10,2013-04-22 22:37:00,
2013-04-22 16:52:00,55.7,14.0,29.63,North,360,8.0,10.0,19,0.00,,,0.00,120,weatherlink.com 1.10,2013-04-22 22:52:00,
2013-04-22 17:07:00,55.7,14.0,29.62,North,360,7.0,7.0,19,0.00,,,0.00,100,weatherlink.com 1.10,2013-04-22 23:07:00,
2013-04-22 17:22:00,55.3,13.0,29.62,North,360,4.0,9.0,19,0.00,,,0.00,74,weatherlink.com 1.10,2013-04-22 23:22:00,
2013-04-22 17:37:00,55.3,13.0,29.61,North,360,6.0,10.0,19,0.00,,,0.00,111,weatherlink.com 1.10,2013-04-22 23:37:00,
2013-04-22 17:52:00,55.9,13.0,29.62,North,360,6.0,10.0,18,0.00,,,0.00,76,weatherlink.com 1.10,2013-04-22 23:52:00,
2013-04-22 18:07:00,55.6,12.0,29.61,North,360,4.0,6.0,18,0.00,,,0.00,58,weatherlink.com 1.10,2013-04-23 00:07:00,
2013-04-22 18:22:00,55.4,12.0,29.62,North,360,2.0,6.0,18,0.00,,,0.00,54,weatherlink.com 1.10,2013-04-23 00:22:00,
2013-04-22 18:37:00,55.3,13.0,29.62,North,360,5.0,7.0,19,0.00,,,0.00,47,weatherlink.com 1.10,2013-04-23 00:37:00,
2013-04-22 18:52:00,55.0,13.0,29.62,WSW,252,6.0,11.0,19,0.00,,,0.00,42,weatherlink.com 1.10,2013-04-23 00:52:00,
2013-04-22 19:07:00,54.9,13.0,29.61,SW,232,1.0,9.0,19,0.00,,,0.00,35,weatherlink.com 1.10,2013-04-23 01:07:00,
2013-04-22 19:22:00,54.8,14.0,29.61,WSW,242,4.0,6.0,20,0.00,,,0.00,19,weatherlink.com 1.10,2013-04-23 01:22:00,
2013-04-22 19:37:00,53.8,15.0,29.61,West,271,3.0,4.0,21,0.00,,,0.00,0,weatherlink.com 1.10,2013-04-23 01:37:00,
2013-04-22 19:52:00,53.5,14.0,29.61,West,270,4.0,8.0,21,0.00,,,0.00,0,weatherlink.com 1.10,2013-04-23 01:52:00,
2013-04-22 20:07:00,53.3,15.0,29.61,West,259,2.0,6.0,22,0.00,,,0.00,0,weatherlink.com 1.10,2013-04-23 02:07:00,
2013-04-22 20:22:00,52.8,15.0,29.61,SW,215,4.0,9.0,22,0.00,,,0.00,0,weatherlink.com 1.10,2013-04-23 02:22:00,
2013-04-22 20:37:00,52.0,14.0,29.61,WSW,244,3.0,6.0,22,0.00,,,0.00,0,weatherlink.com 1.10,2013-04-23 02:37:00,
2013-04-22 20:52:00,51.7,15.0,29.61,SSW,206,3.0,6.0,23,0.00,,,0.00,0,weatherlink.com 1.10,2013-04-23 02:52:00,
2013-04-22 21:07:00,51.5,15.0,29.61,WSW,244,1.0,3.0,23,0.00,,,0.00,0,weatherlink.com 1.10,2013-04-23 03:07:00,
2013-04-22 21:22:00,51.3,15.0,29.61,West,273,0.0,3.0,24,0.00,,,0.00,0,weatherlink.com 1.10,2013-04-23 03:22:00,
2013-04-22 21:37:00,49.6,18.0,29.61,North,360,0.0,2.0,28,0.00,,,0.00,0,weatherlink.com 1.10,2013-04-23 03:37:00,
2013-04-22 21:52:00,48.3,17.0,29.60,North,360,3.0,4.0,29,0.00,,,0.00,0,weatherlink.com 1.10,2013-04-23 03:52:00,
2013-04-22 22:07:00,48.3,20.0,29.61,North,360,1.0,4.0,32,0.00,,,0.00,0,weatherlink.com 1.10,2013-04-23 04:07:00,
2013-04-22 22:22:00,46.5,21.0,29.60,North,360,2.0,7.0,37,0.00,,,0.00,0,weatherlink.com 1.10,2013-04-23 04:22:00,
2013-04-22 22:37:00,44.8,23.0,29.59,North,360,1.0,7.0,42,0.00,,,0.00,0,weatherlink.com 1.10,2013-04-23 04:37:00,
2013-04-22 22:52:00,43.1,23.0,29.59,North,360,0.0,4.0,46,0.00,,,0.00,0,weatherlink.com 1.10,2013-04-23 04:52:00,
2013-04-22 23:07:00,42.2,24.0,29.59,North,360,0.0,3.0,48,0.00,,,0.00,0,weatherlink.com 1.10,2013-04-23 05:07:00,
2013-04-22 23:22:00,41.2,24.0,29.58,North,360,0.0,6.0,50,0.00,,,0.00,0,weatherlink.com 1.10,2013-04-23 05:22:00,
2013-04-22 23:37:00,40.8,24.0,29.58,North,360,1.0,4.0,52,0.00,,,0.00,0,weatherlink.com 1.10,2013-04-23 05:37:00,
2013-04-22 23:53:00,39.6,25.0,29.58,North,360,1.0,2.0,57,0.00,,,0.00,0,weatherlink.com 1.10,2013-04-23 05:53:00,